Weather History for KLWV - October, 2012

Change the Weather History Date:

Friday, October 5, 2012

  Actual Average Record
Temperature  
Mean Temperature 52 °F 62 °F  
Max Temperature 61 °F 74 °F 91 °F (2007)
Min Temperature 42 °F 49 °F 33 °F (1999)
Degree Days  
Heating Degree Days 13 5  
Month to date heating degree days 27 24  
Since 1 July heating degree days 92 63  
Cooling Degree Days 0 2  
Month to date cooling degree days 3 11  
Year to date cooling degree days 1695 1365  
Growing Degree Days 2 (Base 50)    
Moisture  
Dew Point 44 °F    
Average Humidity 80    
Maximum Humidity 93    
Minimum Humidity 67    
Precipitation  
Precipitation 1.28 in 0.14 in 3.56 in (1983)
Month to date precipitation 1.80 0.77  
Year to date precipitation 25.47 33.31  
Sea Level Pressure  
Sea Level Pressure 30.13 in    
Wind  
Wind Speed 9 mph (North)    
Max Wind Speed 23 mph    
Max Gust Speed 29 mph    
Visibility 5 miles    
Events Rain , Thunderstorm    
T = Trace of Precipitation, MM = Missing Value Source: NWS Daily Summary

Daily Weather History Graph

Daily Weather History Graph

Search for Another Location

Airport or City:

Trip Planner

Search our weather history database for the weather conditions in past years. The results will help you decide how hot, cold, wet, or windy it might be!

Date:

Astronomy

Oct. 05, 2012 Rise Set
Actual Time 6:50 AM CDT 6:26 PM CDT
Civil Twilight 6:23 AM CDT 6:52 PM CDT
Nautical Twilight 5:53 AM CDT 7:23 PM CDT
Astronomical Twilight 5:22 AM CDT 7:54 PM CDT
Moon 9:52 PM CDT (10/5) 11:55 AM CDT (10/5)
Length of Visible Light 12h 28m
Length of Day
11h 35m
Waning Gibbous, 74% of the Moon is Illuminated
Oct 5
Waning Gibbous
Oct 8
Last Quarter
Oct 15
New
Oct 21
First Quarter
Oct 29
Full

Hourly Weather History & Observations

Time (CDT) Temp. Windchill Dew Point Humidity Pressure Visibility Wind Dir Wind Speed Gust Speed Precip Events Conditions
12:53 AM 61.0 °F - 55.9 °F 83% 30.13 in 6.0 mi North 5.8 mph - N/A   Haze
1:53 AM 57.0 °F - 52.0 °F 83% 30.15 in 7.0 mi NW 8.1 mph - N/A   Clear
3:53 AM 55.0 °F - 50.0 °F 83% 30.16 in 7.0 mi NNW 6.9 mph - N/A   Clear
4:53 AM 53.1 °F - 50.0 °F 89% 30.16 in 7.0 mi NNW 4.6 mph - N/A   Clear
5:53 AM 54.0 °F - 46.0 °F 75% 30.17 in 10.0 mi North 10.4 mph - N/A   Overcast
6:53 AM 52.0 °F - 45.0 °F 77% 30.17 in 10.0 mi North 8.1 mph - N/A   Clear
7:53 AM 53.1 °F - 45.0 °F 74% 30.17 in 10.0 mi North 8.1 mph - N/A   Mostly Cloudy
8:53 AM 54.0 °F - 45.0 °F 72% 30.18 in 10.0 mi North 8.1 mph - N/A   Clear
9:53 AM 57.0 °F - 46.0 °F 67% 30.18 in 10.0 mi NNE 6.9 mph - N/A   Mostly Cloudy
10:53 AM 57.0 °F - 46.0 °F 67% 30.16 in 10.0 mi North 4.6 mph - N/A   Overcast
11:53 AM 57.9 °F - 46.0 °F 65% 30.14 in 10.0 mi NNW 10.4 mph - N/A   Mostly Cloudy
12:53 PM 54.0 °F - 45.0 °F 72% 30.13 in 10.0 mi North 10.4 mph - N/A   Mostly Cloudy
1:53 PM 51.1 °F - 46.0 °F 83% 30.13 in 10.0 mi North 15.0 mph - 0.00 in Rain Light Rain
2:28 PM 50.0 °F - 46.4 °F 87% - 3.0 mi North 9.2 mph - 0.01 in Rain , Thunderstorm Thunderstorms and Rain
2:35 PM 48.2 °F - 46.4 °F 93% - 1.8 mi NNE 9.2 mph - 0.06 in Rain , Thunderstorm Heavy Thunderstorms and Rain
2:51 PM 48.2 °F - 46.4 °F 93% - 2.0 mi NNE 9.2 mph - 0.10 in Rain , Thunderstorm Rain
2:53 PM 48.9 °F - 46.0 °F 90% - 2.0 mi North 9.2 mph - 0.10 in Rain , Thunderstorm Heavy Rain
3:00 PM 48.2 °F - 46.4 °F 93% - 3.0 mi ENE 4.6 mph - 0.01 in Rain Light Rain
3:15 PM 48.2 °F - 46.4 °F 93% 30.11 in 2.5 mi NW 11.5 mph - 0.03 in Rain Rain
3:24 PM 48.2 °F - 46.4 °F 93% 30.09 in 1.5 mi NNW 10.4 mph - 0.07 in Rain Heavy Rain
3:36 PM 48.2 °F - 44.6 °F 87% 30.08 in 2.5 mi North 12.7 mph - 0.09 in Rain Rain
3:44 PM 48.2 °F - 44.6 °F 87% 30.08 in 4.0 mi North 12.7 mph - 0.10 in Rain Rain
3:53 PM 48.0 °F - 45.0 °F 89% 30.08 in 5.0 mi North 12.7 mph 19.6 mph 0.11 in Rain Light Rain
4:22 PM 46.4 °F 40.1 °F 42.8 °F 87% 30.11 in 2.0 mi NNW 15.0 mph 21.9 mph 0.05 in Rain Heavy Rain
4:25 PM 46.4 °F 40.1 °F 42.8 °F 87% 30.10 in 1.5 mi NNW 15.0 mph - 0.07 in Rain Heavy Rain
4:35 PM 46.4 °F 40.1 °F 44.6 °F 93% 30.10 in 1.8 mi North 15.0 mph - 0.10 in Rain Rain
4:42 PM 46.4 °F 41.9 °F 42.8 °F 87% 30.08 in 2.5 mi North 9.2 mph - 0.11 in Rain Rain
4:49 PM 46.4 °F 40.7 °F 42.8 °F 87% 30.09 in 4.0 mi North 12.7 mph - 0.12 in Rain Rain
4:53 PM 46.9 °F - 44.1 °F 90% 30.09 in 3.0 mi North 12.7 mph - 0.13 in Rain Rain
4:57 PM 46.4 °F 40.7 °F 44.6 °F 93% 30.10 in 3.0 mi North 12.7 mph - 0.01 in Rain Rain
5:01 PM 46.4 °F 39.0 °F 44.6 °F 93% 30.09 in 2.5 mi North 19.6 mph 24.2 mph 0.04 in Rain Heavy Rain
5:03 PM 46.4 °F 39.5 °F 42.8 °F 87% 30.08 in 1.8 mi North 17.3 mph 24.2 mph 0.07 in Rain Heavy Rain
5:14 PM 46.4 °F 38.5 °F 42.8 °F 87% 30.11 in 1.2 mi NNW 21.9 mph 26.5 mph 0.23 in Rain Heavy Rain
5:46 PM 46.4 °F 39.5 °F 42.8 °F 87% 30.14 in 2.0 mi NNW 17.3 mph - 0.46 in Rain Heavy Rain
5:53 PM 46.0 °F 40.6 °F 44.1 °F 93% 30.12 in 2.5 mi NNW 11.5 mph - 0.48 in Rain Heavy Rain
6:01 PM 46.4 °F 41.1 °F 42.8 °F 87% 30.10 in 5.0 mi North 11.5 mph - 0.00 in Rain Light Rain
6:38 PM 44.6 °F 37.8 °F 41.0 °F 87% 30.11 in 2.5 mi North 15.0 mph 28.8 mph 0.06 in Rain Rain
6:53 PM 44.1 °F 37.7 °F 41.0 °F 89% 30.14 in 3.0 mi North 12.7 mph - 0.10 in Rain Rain
7:06 PM 44.6 °F 38.8 °F 41.0 °F 87% 30.14 in 7.0 mi NNW 11.5 mph - 0.01 in Rain Light Rain
7:31 PM 44.6 °F 37.8 °F 39.2 °F 81% 30.15 in 7.0 mi NNW 15.0 mph - 0.04 in Rain Light Rain
7:45 PM 44.6 °F 38.4 °F 41.0 °F 87% 30.16 in 6.0 mi NNW 12.7 mph - 0.05 in Rain Light Rain
7:53 PM 43.0 °F 36.0 °F 39.9 °F 89% 30.16 in 8.0 mi North 13.8 mph 20.7 mph 0.05 in Rain Light Rain
8:12 PM 42.8 °F 36.6 °F 39.2 °F 87% 30.13 in 7.0 mi North 11.5 mph - 0.01 in Rain Light Rain
8:53 PM 43.0 °F 37.7 °F 39.9 °F 89% 30.17 in 3.0 mi NNW 9.2 mph - 0.06 in Rain Heavy Rain
8:58 PM 42.8 °F 38.0 °F 39.2 °F 87% 30.13 in 1.8 mi North 8.1 mph - 0.05 in Rain Heavy Rain
9:07 PM 42.8 °F 38.0 °F 39.2 °F 87% 30.15 in 2.0 mi NNW 8.1 mph - 0.09 in Rain Heavy Rain
9:37 PM 42.8 °F 40.1 °F 39.2 °F 87% 30.16 in 3.0 mi NW 4.6 mph - 0.22 in Rain Rain
9:53 PM 43.0 °F 38.8 °F 39.9 °F 89% 30.16 in 4.0 mi NNW 6.9 mph - 0.25 in Rain Light Rain
10:11 PM 42.8 °F 39.3 °F 39.2 °F 87% 30.16 in 10.0 mi North 5.8 mph - 0.00 in Rain Light Rain
10:53 PM 43.0 °F 39.5 °F 39.9 °F 89% 30.16 in 10.0 mi NW 5.8 mph - 0.00 in   Overcast
11:53 PM 44.1 °F 39.5 °F 41.0 °F 89% 30.17 in 9.0 mi NW 8.1 mph - N/A   Overcast